Index of /20260428/WXO-DD/model_gdps/15km/00/009
Name Last modified Size Description
Parent Directory -
20260428T00Z_MSC_GDPS_AbsoluteVorticity_IsbL-0200_LatLon0.15_PT009H.grib2 2026-04-28 03:58 1.2M
20260428T00Z_MSC_GDPS_AbsoluteVorticity_IsbL-0250_LatLon0.15_PT009H.grib2 2026-04-28 03:58 1.3M
20260428T00Z_MSC_GDPS_AbsoluteVorticity_IsbL-0500_LatLon0.15_PT009H.grib2 2026-04-28 03:58 1.5M
20260428T00Z_MSC_GDPS_AbsoluteVorticity_IsbL-0700_LatLon0.15_PT009H.grib2 2026-04-28 03:58 1.3M
20260428T00Z_MSC_GDPS_AbsoluteVorticity_IsbL-0850_LatLon0.15_PT009H.grib2 2026-04-28 03:58 1.6M
20260428T00Z_MSC_GDPS_AirTemp_AGL-120m_LatLon0.15_PT009H.grib2 2026-04-28 03:58 905K
20260428T00Z_MSC_GDPS_AirTemp_AGL-2m_LatLon0.15_PT009H.grib2 2026-04-28 03:58 1.0M
20260428T00Z_MSC_GDPS_AirTemp_AGL-40m_LatLon0.15_PT009H.grib2 2026-04-28 03:58 807K
20260428T00Z_MSC_GDPS_AirTemp_AGL-80m_LatLon0.15_PT009H.grib2 2026-04-28 03:58 796K
20260428T00Z_MSC_GDPS_AirTemp_IsbL-0001_LatLon0.15_PT009H.grib2 2026-04-28 03:58 657K
20260428T00Z_MSC_GDPS_AirTemp_IsbL-0005_LatLon0.15_PT009H.grib2 2026-04-28 03:58 691K
20260428T00Z_MSC_GDPS_AirTemp_IsbL-0010_LatLon0.15_PT009H.grib2 2026-04-28 03:58 764K
20260428T00Z_MSC_GDPS_AirTemp_IsbL-0020_LatLon0.15_PT009H.grib2 2026-04-28 03:58 787K
20260428T00Z_MSC_GDPS_AirTemp_IsbL-0030_LatLon0.15_PT009H.grib2 2026-04-28 03:58 749K
20260428T00Z_MSC_GDPS_AirTemp_IsbL-0050_LatLon0.15_PT009H.grib2 2026-04-28 03:58 803K
20260428T00Z_MSC_GDPS_AirTemp_IsbL-0100_LatLon0.15_PT009H.grib2 2026-04-28 03:58 943K
20260428T00Z_MSC_GDPS_AirTemp_IsbL-0150_LatLon0.15_PT009H.grib2 2026-04-28 03:58 1.0M
20260428T00Z_MSC_GDPS_AirTemp_IsbL-0175_LatLon0.15_PT009H.grib2 2026-04-28 03:58 957K
20260428T00Z_MSC_GDPS_AirTemp_IsbL-0200_LatLon0.15_PT009H.grib2 2026-04-28 03:58 970K
20260428T00Z_MSC_GDPS_AirTemp_IsbL-0225_LatLon0.15_PT009H.grib2 2026-04-28 03:58 1.0M
20260428T00Z_MSC_GDPS_AirTemp_IsbL-0250_LatLon0.15_PT009H.grib2 2026-04-28 03:58 1.0M
20260428T00Z_MSC_GDPS_AirTemp_IsbL-0275_LatLon0.15_PT009H.grib2 2026-04-28 03:58 1.0M
20260428T00Z_MSC_GDPS_AirTemp_IsbL-0300_LatLon0.15_PT009H.grib2 2026-04-28 03:58 1.0M
20260428T00Z_MSC_GDPS_AirTemp_IsbL-0350_LatLon0.15_PT009H.grib2 2026-04-28 03:58 935K
20260428T00Z_MSC_GDPS_AirTemp_IsbL-0400_LatLon0.15_PT009H.grib2 2026-04-28 03:58 944K
20260428T00Z_MSC_GDPS_AirTemp_IsbL-0450_LatLon0.15_PT009H.grib2 2026-04-28 03:58 965K
20260428T00Z_MSC_GDPS_AirTemp_IsbL-0500_LatLon0.15_PT009H.grib2 2026-04-28 03:58 1.0M
20260428T00Z_MSC_GDPS_AirTemp_IsbL-0550_LatLon0.15_PT009H.grib2 2026-04-28 03:58 801K
20260428T00Z_MSC_GDPS_AirTemp_IsbL-0600_LatLon0.15_PT009H.grib2 2026-04-28 03:58 892K
20260428T00Z_MSC_GDPS_AirTemp_IsbL-0650_LatLon0.15_PT009H.grib2 2026-04-28 03:58 923K
20260428T00Z_MSC_GDPS_AirTemp_IsbL-0700_LatLon0.15_PT009H.grib2 2026-04-28 03:58 955K
20260428T00Z_MSC_GDPS_AirTemp_IsbL-0750_LatLon0.15_PT009H.grib2 2026-04-28 03:58 1.0M
20260428T00Z_MSC_GDPS_AirTemp_IsbL-0800_LatLon0.15_PT009H.grib2 2026-04-28 03:58 1.1M
20260428T00Z_MSC_GDPS_AirTemp_IsbL-0850_LatLon0.15_PT009H.grib2 2026-04-28 03:58 1.1M
20260428T00Z_MSC_GDPS_AirTemp_IsbL-0875_LatLon0.15_PT009H.grib2 2026-04-28 03:58 1.1M
20260428T00Z_MSC_GDPS_AirTemp_IsbL-0900_LatLon0.15_PT009H.grib2 2026-04-28 03:58 1.1M
20260428T00Z_MSC_GDPS_AirTemp_IsbL-0925_LatLon0.15_PT009H.grib2 2026-04-28 03:58 1.1M
20260428T00Z_MSC_GDPS_AirTemp_IsbL-0950_LatLon0.15_PT009H.grib2 2026-04-28 03:58 1.1M
20260428T00Z_MSC_GDPS_AirTemp_IsbL-0970_LatLon0.15_PT009H.grib2 2026-04-28 03:58 1.2M
20260428T00Z_MSC_GDPS_AirTemp_IsbL-0985_LatLon0.15_PT009H.grib2 2026-04-28 03:58 1.1M
20260428T00Z_MSC_GDPS_AirTemp_IsbL-1000_LatLon0.15_PT009H.grib2 2026-04-28 03:58 1.1M
20260428T00Z_MSC_GDPS_AirTemp_IsbL-1015_LatLon0.15_PT009H.grib2 2026-04-28 03:58 1.1M
20260428T00Z_MSC_GDPS_Albedo_Sfc_LatLon0.15_PT009H.grib2 2026-04-28 03:58 244K
20260428T00Z_MSC_GDPS_CAPE_Sfc_LatLon0.15_PT009H.grib2 2026-04-28 03:58 3.9M
20260428T00Z_MSC_GDPS_CIN_Sfc_LatLon0.15_PT009H.grib2 2026-04-28 03:58 3.1M
20260428T00Z_MSC_GDPS_CloudWater_EAtm_LatLon0.15_PT009H.grib2 2026-04-28 03:58 528K
20260428T00Z_MSC_GDPS_ConvectivePrecip-Accum_Sfc_LatLon0.15_PT009H.grib2 2026-04-28 03:58 1.8M
20260428T00Z_MSC_GDPS_DewPointDepression_AGL-2m_LatLon0.15_PT009H.grib2 2026-04-28 03:58 758K
20260428T00Z_MSC_GDPS_DewPointDepression_IsbL-0010_LatLon0.15_PT009H.grib2 2026-04-28 03:58 60K
20260428T00Z_MSC_GDPS_DewPointDepression_IsbL-0020_LatLon0.15_PT009H.grib2 2026-04-28 03:58 85K
20260428T00Z_MSC_GDPS_DewPointDepression_IsbL-0030_LatLon0.15_PT009H.grib2 2026-04-28 03:58 70K
20260428T00Z_MSC_GDPS_DewPointDepression_IsbL-0050_LatLon0.15_PT009H.grib2 2026-04-28 03:58 363K
20260428T00Z_MSC_GDPS_DewPointDepression_IsbL-0100_LatLon0.15_PT009H.grib2 2026-04-28 03:58 409K
20260428T00Z_MSC_GDPS_DewPointDepression_IsbL-0150_LatLon0.15_PT009H.grib2 2026-04-28 03:58 473K
20260428T00Z_MSC_GDPS_DewPointDepression_IsbL-0175_LatLon0.15_PT009H.grib2 2026-04-28 03:58 568K
20260428T00Z_MSC_GDPS_DewPointDepression_IsbL-0200_LatLon0.15_PT009H.grib2 2026-04-28 03:58 670K
20260428T00Z_MSC_GDPS_DewPointDepression_IsbL-0225_LatLon0.15_PT009H.grib2 2026-04-28 03:58 778K
20260428T00Z_MSC_GDPS_DewPointDepression_IsbL-0250_LatLon0.15_PT009H.grib2 2026-04-28 03:58 872K
20260428T00Z_MSC_GDPS_DewPointDepression_IsbL-0275_LatLon0.15_PT009H.grib2 2026-04-28 03:58 892K
20260428T00Z_MSC_GDPS_DewPointDepression_IsbL-0300_LatLon0.15_PT009H.grib2 2026-04-28 03:58 939K
20260428T00Z_MSC_GDPS_DewPointDepression_IsbL-0350_LatLon0.15_PT009H.grib2 2026-04-28 03:58 968K
20260428T00Z_MSC_GDPS_DewPointDepression_IsbL-0400_LatLon0.15_PT009H.grib2 2026-04-28 03:58 1.0M
20260428T00Z_MSC_GDPS_DewPointDepression_IsbL-0450_LatLon0.15_PT009H.grib2 2026-04-28 03:58 1.0M
20260428T00Z_MSC_GDPS_DewPointDepression_IsbL-0500_LatLon0.15_PT009H.grib2 2026-04-28 03:58 1.0M
20260428T00Z_MSC_GDPS_DewPointDepression_IsbL-0550_LatLon0.15_PT009H.grib2 2026-04-28 03:58 1.0M
20260428T00Z_MSC_GDPS_DewPointDepression_IsbL-0600_LatLon0.15_PT009H.grib2 2026-04-28 03:58 1.0M
20260428T00Z_MSC_GDPS_DewPointDepression_IsbL-0650_LatLon0.15_PT009H.grib2 2026-04-28 03:58 1.1M
20260428T00Z_MSC_GDPS_DewPointDepression_IsbL-0700_LatLon0.15_PT009H.grib2 2026-04-28 03:58 1.1M
20260428T00Z_MSC_GDPS_DewPointDepression_IsbL-0750_LatLon0.15_PT009H.grib2 2026-04-28 03:58 1.1M
20260428T00Z_MSC_GDPS_DewPointDepression_IsbL-0800_LatLon0.15_PT009H.grib2 2026-04-28 03:58 1.2M
20260428T00Z_MSC_GDPS_DewPointDepression_IsbL-0850_LatLon0.15_PT009H.grib2 2026-04-28 03:58 1.2M
20260428T00Z_MSC_GDPS_DewPointDepression_IsbL-0875_LatLon0.15_PT009H.grib2 2026-04-28 03:58 1.1M
20260428T00Z_MSC_GDPS_DewPointDepression_IsbL-0900_LatLon0.15_PT009H.grib2 2026-04-28 03:58 1.1M
20260428T00Z_MSC_GDPS_DewPointDepression_IsbL-0925_LatLon0.15_PT009H.grib2 2026-04-28 03:58 1.0M
20260428T00Z_MSC_GDPS_DewPointDepression_IsbL-0950_LatLon0.15_PT009H.grib2 2026-04-28 03:58 1.0M
20260428T00Z_MSC_GDPS_DewPointDepression_IsbL-0970_LatLon0.15_PT009H.grib2 2026-04-28 03:58 1.0M
20260428T00Z_MSC_GDPS_DewPointDepression_IsbL-0985_LatLon0.15_PT009H.grib2 2026-04-28 03:58 1.0M
20260428T00Z_MSC_GDPS_DewPointDepression_IsbL-1000_LatLon0.15_PT009H.grib2 2026-04-28 03:58 970K
20260428T00Z_MSC_GDPS_DewPointDepression_IsbL-1015_LatLon0.15_PT009H.grib2 2026-04-28 03:58 917K
20260428T00Z_MSC_GDPS_DewPoint_AGL-2m_LatLon0.15_PT009H.grib2 2026-04-28 03:58 609K
20260428T00Z_MSC_GDPS_DownwardLongwaveRadiationFlux-Accum_Sfc_LatLon0.15_PT009H.grib2 2026-04-28 03:58 934K
20260428T00Z_MSC_GDPS_DownwardShortwaveRadiationFlux-Accum_NTAtm_LatLon0.15_PT009H.grib2 2026-04-28 03:58 305K
20260428T00Z_MSC_GDPS_DownwardShortwaveRadiationFlux-Accum_Sfc_LatLon0.15_PT009H.grib2 2026-04-28 03:58 754K
20260428T00Z_MSC_GDPS_FreezingRain-Accum1h_Sfc_LatLon0.15_PT009H.grib2 2026-04-28 03:58 41K
20260428T00Z_MSC_GDPS_FreezingRain-Accum3h_Sfc_LatLon0.15_PT009H.grib2 2026-04-28 03:58 49K
20260428T00Z_MSC_GDPS_FreezingRain-Accum_Sfc_LatLon0.15_PT009H.grib2 2026-04-28 03:58 87K
20260428T00Z_MSC_GDPS_GeopotentialHeight_IsbL-0001_LatLon0.15_PT009H.grib2 2026-04-28 03:58 391K
20260428T00Z_MSC_GDPS_GeopotentialHeight_IsbL-0005_LatLon0.15_PT009H.grib2 2026-04-28 03:58 501K
20260428T00Z_MSC_GDPS_GeopotentialHeight_IsbL-0010_LatLon0.15_PT009H.grib2 2026-04-28 03:58 485K
20260428T00Z_MSC_GDPS_GeopotentialHeight_IsbL-0020_LatLon0.15_PT009H.grib2 2026-04-28 03:58 425K
20260428T00Z_MSC_GDPS_GeopotentialHeight_IsbL-0030_LatLon0.15_PT009H.grib2 2026-04-28 03:58 582K
20260428T00Z_MSC_GDPS_GeopotentialHeight_IsbL-0050_LatLon0.15_PT009H.grib2 2026-04-28 03:58 579K
20260428T00Z_MSC_GDPS_GeopotentialHeight_IsbL-0100_LatLon0.15_PT009H.grib2 2026-04-28 03:58 612K
20260428T00Z_MSC_GDPS_GeopotentialHeight_IsbL-0150_LatLon0.15_PT009H.grib2 2026-04-28 03:58 631K
20260428T00Z_MSC_GDPS_GeopotentialHeight_IsbL-0175_LatLon0.15_PT009H.grib2 2026-04-28 03:58 635K
20260428T00Z_MSC_GDPS_GeopotentialHeight_IsbL-0200_LatLon0.15_PT009H.grib2 2026-04-28 03:58 639K
20260428T00Z_MSC_GDPS_GeopotentialHeight_IsbL-0225_LatLon0.15_PT009H.grib2 2026-04-28 03:58 642K
20260428T00Z_MSC_GDPS_GeopotentialHeight_IsbL-0250_LatLon0.15_PT009H.grib2 2026-04-28 03:58 642K
20260428T00Z_MSC_GDPS_GeopotentialHeight_IsbL-0275_LatLon0.15_PT009H.grib2 2026-04-28 03:58 643K
20260428T00Z_MSC_GDPS_GeopotentialHeight_IsbL-0300_LatLon0.15_PT009H.grib2 2026-04-28 03:58 643K
20260428T00Z_MSC_GDPS_GeopotentialHeight_IsbL-0350_LatLon0.15_PT009H.grib2 2026-04-28 03:58 635K
20260428T00Z_MSC_GDPS_GeopotentialHeight_IsbL-0400_LatLon0.15_PT009H.grib2 2026-04-28 03:58 625K
20260428T00Z_MSC_GDPS_GeopotentialHeight_IsbL-0450_LatLon0.15_PT009H.grib2 2026-04-28 03:58 615K
20260428T00Z_MSC_GDPS_GeopotentialHeight_IsbL-0500_LatLon0.15_PT009H.grib2 2026-04-28 03:58 600K
20260428T00Z_MSC_GDPS_GeopotentialHeight_IsbL-0550_LatLon0.15_PT009H.grib2 2026-04-28 03:58 527K
20260428T00Z_MSC_GDPS_GeopotentialHeight_IsbL-0600_LatLon0.15_PT009H.grib2 2026-04-28 03:58 521K
20260428T00Z_MSC_GDPS_GeopotentialHeight_IsbL-0650_LatLon0.15_PT009H.grib2 2026-04-28 03:58 522K
20260428T00Z_MSC_GDPS_GeopotentialHeight_IsbL-0700_LatLon0.15_PT009H.grib2 2026-04-28 03:58 691K
20260428T00Z_MSC_GDPS_GeopotentialHeight_IsbL-0750_LatLon0.15_PT009H.grib2 2026-04-28 03:58 691K
20260428T00Z_MSC_GDPS_GeopotentialHeight_IsbL-0800_LatLon0.15_PT009H.grib2 2026-04-28 03:58 704K
20260428T00Z_MSC_GDPS_GeopotentialHeight_IsbL-0850_LatLon0.15_PT009H.grib2 2026-04-28 03:58 708K
20260428T00Z_MSC_GDPS_GeopotentialHeight_IsbL-0875_LatLon0.15_PT009H.grib2 2026-04-28 03:58 717K
20260428T00Z_MSC_GDPS_GeopotentialHeight_IsbL-0900_LatLon0.15_PT009H.grib2 2026-04-28 03:58 723K
20260428T00Z_MSC_GDPS_GeopotentialHeight_IsbL-0925_LatLon0.15_PT009H.grib2 2026-04-28 03:58 728K
20260428T00Z_MSC_GDPS_GeopotentialHeight_IsbL-0950_LatLon0.15_PT009H.grib2 2026-04-28 03:58 738K
20260428T00Z_MSC_GDPS_GeopotentialHeight_IsbL-0970_LatLon0.15_PT009H.grib2 2026-04-28 03:58 749K
20260428T00Z_MSC_GDPS_GeopotentialHeight_IsbL-0985_LatLon0.15_PT009H.grib2 2026-04-28 03:58 766K
20260428T00Z_MSC_GDPS_GeopotentialHeight_IsbL-1000_LatLon0.15_PT009H.grib2 2026-04-28 03:58 788K
20260428T00Z_MSC_GDPS_GeopotentialHeight_IsbL-1015_LatLon0.15_PT009H.grib2 2026-04-28 03:58 812K
20260428T00Z_MSC_GDPS_Humidex_Sfc_LatLon0.15_PT009H.grib2 2026-04-28 03:58 5.3M
20260428T00Z_MSC_GDPS_IcePellets-Accum1h_Sfc_LatLon0.15_PT009H.grib2 2026-04-28 03:58 11K
20260428T00Z_MSC_GDPS_IcePellets-Accum3h_Sfc_LatLon0.15_PT009H.grib2 2026-04-28 03:58 13K
20260428T00Z_MSC_GDPS_IcePellets-Accum_Sfc_LatLon0.15_PT009H.grib2 2026-04-28 03:58 20K
20260428T00Z_MSC_GDPS_KIndex_Sfc_LatLon0.15_PT009H.grib2 2026-04-28 03:58 6.0M
20260428T00Z_MSC_GDPS_LatentHeatNetFlux_Sfc_LatLon0.15_PT009H.grib2 2026-04-28 03:58 550K
20260428T00Z_MSC_GDPS_LiftedIndex-MU-VT_IsbL-0500_LatLon0.15_PT009H.grib2 2026-04-28 03:58 5.4M
20260428T00Z_MSC_GDPS_NetLongwaveRadiationFlux-Accum_Sfc_LatLon0.15_PT009H.grib2 2026-04-28 03:58 1.2M
20260428T00Z_MSC_GDPS_NetShortwaveRadiationFlux-Accum_Sfc_LatLon0.15_PT009H.grib2 2026-04-28 03:58 718K
20260428T00Z_MSC_GDPS_O3MixingRatio_LatLon0.15_PT009H.grib2 2026-04-28 04:52 2.1M
20260428T00Z_MSC_GDPS_O3_EAtm_LatLon0.15_PT009H.grib2 2026-04-28 04:52 2.5M
20260428T00Z_MSC_GDPS_PlanetaryBoundaryLayerHeight_Sfc_LatLon0.15_PT009H.grib2 2026-04-28 03:58 2.5M
20260428T00Z_MSC_GDPS_Precip-Accum1h_Sfc_LatLon0.15_PT009H.grib2 2026-04-28 03:58 3.2M
20260428T00Z_MSC_GDPS_Precip-Accum3h_Sfc_LatLon0.15_PT009H.grib2 2026-04-28 03:58 3.5M
20260428T00Z_MSC_GDPS_Precip-Accum_Sfc_LatLon0.15_PT009H.grib2 2026-04-28 03:58 4.0M
20260428T00Z_MSC_GDPS_PrecipRate_Sfc_LatLon0.15_PT009H.grib2 2026-04-28 03:58 2.9M
20260428T00Z_MSC_GDPS_PrecipType-Instant_Sfc_LatLon0.15_PT009H.grib2 2026-04-28 03:58 1.6M
20260428T00Z_MSC_GDPS_Pressure_MSL_LatLon0.15_PT009H.grib2 2026-04-28 03:58 720K
20260428T00Z_MSC_GDPS_Pressure_PVU-1.5_LatLon0.15_PT009H.grib2 2026-04-28 03:58 5.8M
20260428T00Z_MSC_GDPS_Pressure_PVU-1_LatLon0.15_PT009H.grib2 2026-04-28 03:58 6.0M
20260428T00Z_MSC_GDPS_Pressure_PVU-2_LatLon0.15_PT009H.grib2 2026-04-28 03:58 5.6M
20260428T00Z_MSC_GDPS_Pressure_Sfc_LatLon0.15_PT009H.grib2 2026-04-28 03:58 1.1M
20260428T00Z_MSC_GDPS_RadiativeTemp_Sfc_LatLon0.15_PT009H.grib2 2026-04-28 03:58 498K
20260428T00Z_MSC_GDPS_Rain-Accum1h_Sfc_LatLon0.15_PT009H.grib2 2026-04-28 03:58 1.7M
20260428T00Z_MSC_GDPS_Rain-Accum3h_Sfc_LatLon0.15_PT009H.grib2 2026-04-28 03:58 1.7M
20260428T00Z_MSC_GDPS_Rain-Accum_Sfc_LatLon0.15_PT009H.grib2 2026-04-28 03:58 2.8M
20260428T00Z_MSC_GDPS_RelativeHumidity_AGL-2m_LatLon0.15_PT009H.grib2 2026-04-28 03:58 1.0M
20260428T00Z_MSC_GDPS_RelativeHumidity_IsbL-0010_LatLon0.15_PT009H.grib2 2026-04-28 03:58 185K
20260428T00Z_MSC_GDPS_RelativeHumidity_IsbL-0020_LatLon0.15_PT009H.grib2 2026-04-28 03:58 301K
20260428T00Z_MSC_GDPS_RelativeHumidity_IsbL-0030_LatLon0.15_PT009H.grib2 2026-04-28 03:58 268K
20260428T00Z_MSC_GDPS_RelativeHumidity_IsbL-0050_LatLon0.15_PT009H.grib2 2026-04-28 03:58 419K
20260428T00Z_MSC_GDPS_RelativeHumidity_IsbL-0100_LatLon0.15_PT009H.grib2 2026-04-28 03:58 509K
20260428T00Z_MSC_GDPS_RelativeHumidity_IsbL-0150_LatLon0.15_PT009H.grib2 2026-04-28 03:58 661K
20260428T00Z_MSC_GDPS_RelativeHumidity_IsbL-0175_LatLon0.15_PT009H.grib2 2026-04-28 03:58 589K
20260428T00Z_MSC_GDPS_RelativeHumidity_IsbL-0200_LatLon0.15_PT009H.grib2 2026-04-28 03:58 697K
20260428T00Z_MSC_GDPS_RelativeHumidity_IsbL-0225_LatLon0.15_PT009H.grib2 2026-04-28 03:58 783K
20260428T00Z_MSC_GDPS_RelativeHumidity_IsbL-0250_LatLon0.15_PT009H.grib2 2026-04-28 03:58 859K
20260428T00Z_MSC_GDPS_RelativeHumidity_IsbL-0275_LatLon0.15_PT009H.grib2 2026-04-28 03:58 884K
20260428T00Z_MSC_GDPS_RelativeHumidity_IsbL-0300_LatLon0.15_PT009H.grib2 2026-04-28 03:58 930K
20260428T00Z_MSC_GDPS_RelativeHumidity_IsbL-0350_LatLon0.15_PT009H.grib2 2026-04-28 03:58 954K
20260428T00Z_MSC_GDPS_RelativeHumidity_IsbL-0400_LatLon0.15_PT009H.grib2 2026-04-28 03:58 1.0M
20260428T00Z_MSC_GDPS_RelativeHumidity_IsbL-0450_LatLon0.15_PT009H.grib2 2026-04-28 03:58 1.0M
20260428T00Z_MSC_GDPS_RelativeHumidity_IsbL-0500_LatLon0.15_PT009H.grib2 2026-04-28 03:58 1.0M
20260428T00Z_MSC_GDPS_RelativeHumidity_IsbL-0550_LatLon0.15_PT009H.grib2 2026-04-28 03:58 1.1M
20260428T00Z_MSC_GDPS_RelativeHumidity_IsbL-0600_LatLon0.15_PT009H.grib2 2026-04-28 03:58 1.1M
20260428T00Z_MSC_GDPS_RelativeHumidity_IsbL-0650_LatLon0.15_PT009H.grib2 2026-04-28 03:58 1.1M
20260428T00Z_MSC_GDPS_RelativeHumidity_IsbL-0700_LatLon0.15_PT009H.grib2 2026-04-28 03:58 1.1M
20260428T00Z_MSC_GDPS_RelativeHumidity_IsbL-0750_LatLon0.15_PT009H.grib2 2026-04-28 03:58 1.2M
20260428T00Z_MSC_GDPS_RelativeHumidity_IsbL-0800_LatLon0.15_PT009H.grib2 2026-04-28 03:58 1.3M
20260428T00Z_MSC_GDPS_RelativeHumidity_IsbL-0850_LatLon0.15_PT009H.grib2 2026-04-28 03:58 1.3M
20260428T00Z_MSC_GDPS_RelativeHumidity_IsbL-0875_LatLon0.15_PT009H.grib2 2026-04-28 03:58 1.3M
20260428T00Z_MSC_GDPS_RelativeHumidity_IsbL-0900_LatLon0.15_PT009H.grib2 2026-04-28 03:58 1.3M
20260428T00Z_MSC_GDPS_RelativeHumidity_IsbL-0925_LatLon0.15_PT009H.grib2 2026-04-28 03:58 1.2M
20260428T00Z_MSC_GDPS_RelativeHumidity_IsbL-0950_LatLon0.15_PT009H.grib2 2026-04-28 03:58 1.2M
20260428T00Z_MSC_GDPS_RelativeHumidity_IsbL-0970_LatLon0.15_PT009H.grib2 2026-04-28 03:58 1.2M
20260428T00Z_MSC_GDPS_RelativeHumidity_IsbL-0985_LatLon0.15_PT009H.grib2 2026-04-28 03:58 1.1M
20260428T00Z_MSC_GDPS_RelativeHumidity_IsbL-1000_LatLon0.15_PT009H.grib2 2026-04-28 03:58 1.1M
20260428T00Z_MSC_GDPS_RelativeHumidity_IsbL-1015_LatLon0.15_PT009H.grib2 2026-04-28 03:58 1.0M
20260428T00Z_MSC_GDPS_RelativeVorticity_IsbL-0200_LatLon0.15_PT009H.grib2 2026-04-28 03:58 1.5M
20260428T00Z_MSC_GDPS_RelativeVorticity_IsbL-0250_LatLon0.15_PT009H.grib2 2026-04-28 03:58 1.3M
20260428T00Z_MSC_GDPS_RelativeVorticity_IsbL-0500_LatLon0.15_PT009H.grib2 2026-04-28 03:58 1.5M
20260428T00Z_MSC_GDPS_RelativeVorticity_IsbL-0700_LatLon0.15_PT009H.grib2 2026-04-28 03:58 1.3M
20260428T00Z_MSC_GDPS_RelativeVorticity_IsbL-0850_LatLon0.15_PT009H.grib2 2026-04-28 03:58 1.6M
20260428T00Z_MSC_GDPS_Runoff-Accum_Sfc_LatLon0.15_PT009H.grib2 2026-04-28 03:58 71K
20260428T00Z_MSC_GDPS_SensibleHeatNetFlux_Sfc_LatLon0.15_PT009H.grib2 2026-04-28 03:58 658K
20260428T00Z_MSC_GDPS_ShowalterIndex_IsbL-0500_LatLon0.15_PT009H.grib2 2026-04-28 03:58 6.2M
20260428T00Z_MSC_GDPS_Snow-Accum1h_Sfc_LatLon0.15_PT009H.grib2 2026-04-28 03:58 1.0M
20260428T00Z_MSC_GDPS_Snow-Accum3h_Sfc_LatLon0.15_PT009H.grib2 2026-04-28 03:58 956K
20260428T00Z_MSC_GDPS_Snow-Accum_Sfc_LatLon0.15_PT009H.grib2 2026-04-28 03:58 1.6M
20260428T00Z_MSC_GDPS_SnowDensity_Sfc_LatLon0.15_PT009H.grib2 2026-04-28 03:58 258K
20260428T00Z_MSC_GDPS_SnowDepth_Sfc_LatLon0.15_PT009H.grib2 2026-04-28 03:58 1.7M
20260428T00Z_MSC_GDPS_SoilTemp_DBS-0to10cm_LatLon0.15_PT009H.grib2 2026-04-28 03:58 493K
20260428T00Z_MSC_GDPS_SoilTemp_Sfc_LatLon0.15_PT009H.grib2 2026-04-28 03:58 586K
20260428T00Z_MSC_GDPS_SoilVolumetricIceContent_Sfc_LatLon0.15_PT009H.grib2 2026-04-28 03:58 212K
20260428T00Z_MSC_GDPS_SoilVolumetricWaterContent_DBS-0to10cm_LatLon0.15_PT009H.grib2 2026-04-28 03:58 576K
20260428T00Z_MSC_GDPS_SoilVolumetricWaterContent_DBS-0to1cm_LatLon0.15_PT009H.grib2 2026-04-28 03:58 643K
20260428T00Z_MSC_GDPS_SpecificHumidity_AGL-120m_LatLon0.15_PT009H.grib2 2026-04-28 03:58 1.1M
20260428T00Z_MSC_GDPS_SpecificHumidity_AGL-2m_LatLon0.15_PT009H.grib2 2026-04-28 03:58 1.2M
20260428T00Z_MSC_GDPS_SpecificHumidity_AGL-40m_LatLon0.15_PT009H.grib2 2026-04-28 03:58 1.1M
20260428T00Z_MSC_GDPS_SpecificHumidity_AGL-80m_LatLon0.15_PT009H.grib2 2026-04-28 03:58 1.1M
20260428T00Z_MSC_GDPS_SpecificHumidity_IsbL-0001_LatLon0.15_PT009H.grib2 2026-04-28 03:58 1.3M
20260428T00Z_MSC_GDPS_SpecificHumidity_IsbL-0005_LatLon0.15_PT009H.grib2 2026-04-28 03:58 1.3M
20260428T00Z_MSC_GDPS_SpecificHumidity_IsbL-0010_LatLon0.15_PT009H.grib2 2026-04-28 03:58 1.4M
20260428T00Z_MSC_GDPS_SpecificHumidity_IsbL-0020_LatLon0.15_PT009H.grib2 2026-04-28 03:58 1.4M
20260428T00Z_MSC_GDPS_SpecificHumidity_IsbL-0030_LatLon0.15_PT009H.grib2 2026-04-28 03:58 1.4M
20260428T00Z_MSC_GDPS_SpecificHumidity_IsbL-0050_LatLon0.15_PT009H.grib2 2026-04-28 03:58 1.8M
20260428T00Z_MSC_GDPS_SpecificHumidity_IsbL-0100_LatLon0.15_PT009H.grib2 2026-04-28 03:58 1.1M
20260428T00Z_MSC_GDPS_SpecificHumidity_IsbL-0150_LatLon0.15_PT009H.grib2 2026-04-28 03:58 1.0M
20260428T00Z_MSC_GDPS_SpecificHumidity_IsbL-0175_LatLon0.15_PT009H.grib2 2026-04-28 03:58 1.3M
20260428T00Z_MSC_GDPS_SpecificHumidity_IsbL-0200_LatLon0.15_PT009H.grib2 2026-04-28 03:58 1.3M
20260428T00Z_MSC_GDPS_SpecificHumidity_IsbL-0225_LatLon0.15_PT009H.grib2 2026-04-28 03:58 1.3M
20260428T00Z_MSC_GDPS_SpecificHumidity_IsbL-0250_LatLon0.15_PT009H.grib2 2026-04-28 03:58 1.5M
20260428T00Z_MSC_GDPS_SpecificHumidity_IsbL-0275_LatLon0.15_PT009H.grib2 2026-04-28 03:58 1.3M
20260428T00Z_MSC_GDPS_SpecificHumidity_IsbL-0300_LatLon0.15_PT009H.grib2 2026-04-28 03:58 1.5M
20260428T00Z_MSC_GDPS_SpecificHumidity_IsbL-0350_LatLon0.15_PT009H.grib2 2026-04-28 03:58 1.5M
20260428T00Z_MSC_GDPS_SpecificHumidity_IsbL-0400_LatLon0.15_PT009H.grib2 2026-04-28 03:58 1.5M
20260428T00Z_MSC_GDPS_SpecificHumidity_IsbL-0450_LatLon0.15_PT009H.grib2 2026-04-28 03:58 1.6M
20260428T00Z_MSC_GDPS_SpecificHumidity_IsbL-0500_LatLon0.15_PT009H.grib2 2026-04-28 03:58 1.4M
20260428T00Z_MSC_GDPS_SpecificHumidity_IsbL-0550_LatLon0.15_PT009H.grib2 2026-04-28 03:58 1.6M
20260428T00Z_MSC_GDPS_SpecificHumidity_IsbL-0600_LatLon0.15_PT009H.grib2 2026-04-28 03:58 1.7M
20260428T00Z_MSC_GDPS_SpecificHumidity_IsbL-0650_LatLon0.15_PT009H.grib2 2026-04-28 03:58 1.5M
20260428T00Z_MSC_GDPS_SpecificHumidity_IsbL-0700_LatLon0.15_PT009H.grib2 2026-04-28 03:58 1.6M
20260428T00Z_MSC_GDPS_SpecificHumidity_IsbL-0750_LatLon0.15_PT009H.grib2 2026-04-28 03:58 1.7M
20260428T00Z_MSC_GDPS_SpecificHumidity_IsbL-0800_LatLon0.15_PT009H.grib2 2026-04-28 03:58 1.8M
20260428T00Z_MSC_GDPS_SpecificHumidity_IsbL-0850_LatLon0.15_PT009H.grib2 2026-04-28 03:58 1.9M
20260428T00Z_MSC_GDPS_SpecificHumidity_IsbL-0875_LatLon0.15_PT009H.grib2 2026-04-28 03:58 1.9M
20260428T00Z_MSC_GDPS_SpecificHumidity_IsbL-0900_LatLon0.15_PT009H.grib2 2026-04-28 03:58 1.6M
20260428T00Z_MSC_GDPS_SpecificHumidity_IsbL-0925_LatLon0.15_PT009H.grib2 2026-04-28 03:58 1.6M
20260428T00Z_MSC_GDPS_SpecificHumidity_IsbL-0950_LatLon0.15_PT009H.grib2 2026-04-28 03:58 1.6M
20260428T00Z_MSC_GDPS_SpecificHumidity_IsbL-0970_LatLon0.15_PT009H.grib2 2026-04-28 03:58 1.5M
20260428T00Z_MSC_GDPS_SpecificHumidity_IsbL-0985_LatLon0.15_PT009H.grib2 2026-04-28 03:58 1.5M
20260428T00Z_MSC_GDPS_SpecificHumidity_IsbL-1000_LatLon0.15_PT009H.grib2 2026-04-28 03:58 1.5M
20260428T00Z_MSC_GDPS_SpecificHumidity_IsbL-1015_LatLon0.15_PT009H.grib2 2026-04-28 03:58 1.4M
20260428T00Z_MSC_GDPS_SpecificHumidity_Sfc_LatLon0.15_PT009H.grib2 2026-04-28 03:58 586K
20260428T00Z_MSC_GDPS_Thickness_IsbL-0850to0700_LatLon0.15_PT009H.grib2 2026-04-28 03:58 468K
20260428T00Z_MSC_GDPS_Thickness_IsbL-1000to0500_LatLon0.15_PT009H.grib2 2026-04-28 03:58 371K
20260428T00Z_MSC_GDPS_Thickness_IsbL-1000to0850_LatLon0.15_PT009H.grib2 2026-04-28 03:58 490K
20260428T00Z_MSC_GDPS_TotalCloudCover_Sfc_LatLon0.15_PT009H.grib2 2026-04-28 03:58 834K
20260428T00Z_MSC_GDPS_TotalTotalsIndex_Sfc_LatLon0.15_PT009H.grib2 2026-04-28 03:58 6.1M
20260428T00Z_MSC_GDPS_UVIndex-ClearSky_Sfc_LatLon0.15_PT009H.grib2 2026-04-28 04:52 1.1M
20260428T00Z_MSC_GDPS_UVIndex_Sfc_LatLon0.15_PT009H.grib2 2026-04-28 04:52 1.5M
20260428T00Z_MSC_GDPS_UpwardLongwaveRadiationFlux_NTAtm_LatLon0.15_PT009H.grib2 2026-04-28 03:58 841K
20260428T00Z_MSC_GDPS_VerticalVelocity_IsbL-0200_LatLon0.15_PT009H.grib2 2026-04-28 03:58 941K
20260428T00Z_MSC_GDPS_VerticalVelocity_IsbL-0250_LatLon0.15_PT009H.grib2 2026-04-28 03:58 1.1M
20260428T00Z_MSC_GDPS_VerticalVelocity_IsbL-0500_LatLon0.15_PT009H.grib2 2026-04-28 03:58 1.0M
20260428T00Z_MSC_GDPS_VerticalVelocity_IsbL-0600_LatLon0.15_PT009H.grib2 2026-04-28 03:58 1.1M
20260428T00Z_MSC_GDPS_VerticalVelocity_IsbL-0700_LatLon0.15_PT009H.grib2 2026-04-28 03:58 1.1M
20260428T00Z_MSC_GDPS_VerticalVelocity_IsbL-0850_LatLon0.15_PT009H.grib2 2026-04-28 03:58 1.3M
20260428T00Z_MSC_GDPS_WindChill_Sfc_LatLon0.15_PT009H.grib2 2026-04-28 03:58 5.3M
20260428T00Z_MSC_GDPS_WindDir_AGL-10m_LatLon0.15_PT009H.grib2 2026-04-28 03:58 1.3M
20260428T00Z_MSC_GDPS_WindDir_AGL-120m_LatLon0.15_PT009H.grib2 2026-04-28 03:58 1.3M
20260428T00Z_MSC_GDPS_WindDir_AGL-40m_LatLon0.15_PT009H.grib2 2026-04-28 03:58 1.4M
20260428T00Z_MSC_GDPS_WindDir_AGL-80m_LatLon0.15_PT009H.grib2 2026-04-28 03:58 1.4M
20260428T00Z_MSC_GDPS_WindDir_IsbL-0001_LatLon0.15_PT009H.grib2 2026-04-28 03:58 672K
20260428T00Z_MSC_GDPS_WindDir_IsbL-0005_LatLon0.15_PT009H.grib2 2026-04-28 03:58 801K
20260428T00Z_MSC_GDPS_WindDir_IsbL-0010_LatLon0.15_PT009H.grib2 2026-04-28 03:58 863K
20260428T00Z_MSC_GDPS_WindDir_IsbL-0020_LatLon0.15_PT009H.grib2 2026-04-28 03:58 943K
20260428T00Z_MSC_GDPS_WindDir_IsbL-0030_LatLon0.15_PT009H.grib2 2026-04-28 03:58 925K
20260428T00Z_MSC_GDPS_WindDir_IsbL-0050_LatLon0.15_PT009H.grib2 2026-04-28 03:58 949K
20260428T00Z_MSC_GDPS_WindDir_IsbL-0100_LatLon0.15_PT009H.grib2 2026-04-28 03:58 1.0M
20260428T00Z_MSC_GDPS_WindDir_IsbL-0150_LatLon0.15_PT009H.grib2 2026-04-28 03:58 1.0M
20260428T00Z_MSC_GDPS_WindDir_IsbL-0175_LatLon0.15_PT009H.grib2 2026-04-28 03:58 1.0M
20260428T00Z_MSC_GDPS_WindDir_IsbL-0200_LatLon0.15_PT009H.grib2 2026-04-28 03:58 1.1M
20260428T00Z_MSC_GDPS_WindDir_IsbL-0225_LatLon0.15_PT009H.grib2 2026-04-28 03:58 1.1M
20260428T00Z_MSC_GDPS_WindDir_IsbL-0250_LatLon0.15_PT009H.grib2 2026-04-28 03:58 1.1M
20260428T00Z_MSC_GDPS_WindDir_IsbL-0275_LatLon0.15_PT009H.grib2 2026-04-28 03:58 1.2M
20260428T00Z_MSC_GDPS_WindDir_IsbL-0300_LatLon0.15_PT009H.grib2 2026-04-28 03:58 1.2M
20260428T00Z_MSC_GDPS_WindDir_IsbL-0350_LatLon0.15_PT009H.grib2 2026-04-28 03:58 1.2M
20260428T00Z_MSC_GDPS_WindDir_IsbL-0400_LatLon0.15_PT009H.grib2 2026-04-28 03:58 1.3M
20260428T00Z_MSC_GDPS_WindDir_IsbL-0450_LatLon0.15_PT009H.grib2 2026-04-28 03:58 1.3M
20260428T00Z_MSC_GDPS_WindDir_IsbL-0500_LatLon0.15_PT009H.grib2 2026-04-28 03:58 1.3M
20260428T00Z_MSC_GDPS_WindDir_IsbL-0550_LatLon0.15_PT009H.grib2 2026-04-28 03:58 1.4M
20260428T00Z_MSC_GDPS_WindDir_IsbL-0600_LatLon0.15_PT009H.grib2 2026-04-28 03:58 1.4M
20260428T00Z_MSC_GDPS_WindDir_IsbL-0650_LatLon0.15_PT009H.grib2 2026-04-28 03:58 1.5M
20260428T00Z_MSC_GDPS_WindDir_IsbL-0700_LatLon0.15_PT009H.grib2 2026-04-28 03:58 1.6M
20260428T00Z_MSC_GDPS_WindDir_IsbL-0750_LatLon0.15_PT009H.grib2 2026-04-28 03:58 1.7M
20260428T00Z_MSC_GDPS_WindDir_IsbL-0800_LatLon0.15_PT009H.grib2 2026-04-28 03:58 1.8M
20260428T00Z_MSC_GDPS_WindDir_IsbL-0850_LatLon0.15_PT009H.grib2 2026-04-28 03:58 1.9M
20260428T00Z_MSC_GDPS_WindDir_IsbL-0875_LatLon0.15_PT009H.grib2 2026-04-28 03:58 1.9M
20260428T00Z_MSC_GDPS_WindDir_IsbL-0900_LatLon0.15_PT009H.grib2 2026-04-28 03:58 2.0M
20260428T00Z_MSC_GDPS_WindDir_IsbL-0925_LatLon0.15_PT009H.grib2 2026-04-28 03:58 2.0M
20260428T00Z_MSC_GDPS_WindDir_IsbL-0950_LatLon0.15_PT009H.grib2 2026-04-28 03:58 2.0M
20260428T00Z_MSC_GDPS_WindDir_IsbL-0970_LatLon0.15_PT009H.grib2 2026-04-28 03:58 2.0M
20260428T00Z_MSC_GDPS_WindDir_IsbL-0985_LatLon0.15_PT009H.grib2 2026-04-28 03:58 2.0M
20260428T00Z_MSC_GDPS_WindDir_IsbL-1000_LatLon0.15_PT009H.grib2 2026-04-28 03:58 2.0M
20260428T00Z_MSC_GDPS_WindDir_IsbL-1015_LatLon0.15_PT009H.grib2 2026-04-28 03:58 2.0M
20260428T00Z_MSC_GDPS_WindGust-Max_AGL-10m_LatLon0.15_PT009H.grib2 2026-04-28 03:58 2.2M
20260428T00Z_MSC_GDPS_WindGust-Min_AGL-10m_LatLon0.15_PT009H.grib2 2026-04-28 03:58 2.2M
20260428T00Z_MSC_GDPS_WindGust_AGL-10m_LatLon0.15_PT009H.grib2 2026-04-28 03:58 2.2M
20260428T00Z_MSC_GDPS_WindSpeed_AGL-10m_LatLon0.15_PT009H.grib2 2026-04-28 03:58 1.1M
20260428T00Z_MSC_GDPS_WindSpeed_AGL-120m_LatLon0.15_PT009H.grib2 2026-04-28 03:58 1.2M
20260428T00Z_MSC_GDPS_WindSpeed_AGL-40m_LatLon0.15_PT009H.grib2 2026-04-28 03:58 1.2M
20260428T00Z_MSC_GDPS_WindSpeed_AGL-80m_LatLon0.15_PT009H.grib2 2026-04-28 03:58 1.2M
20260428T00Z_MSC_GDPS_WindSpeed_IsbL-0001_LatLon0.15_PT009H.grib2 2026-04-28 03:58 651K
20260428T00Z_MSC_GDPS_WindSpeed_IsbL-0005_LatLon0.15_PT009H.grib2 2026-04-28 03:58 703K
20260428T00Z_MSC_GDPS_WindSpeed_IsbL-0010_LatLon0.15_PT009H.grib2 2026-04-28 03:58 638K
20260428T00Z_MSC_GDPS_WindSpeed_IsbL-0020_LatLon0.15_PT009H.grib2 2026-04-28 03:58 676K
20260428T00Z_MSC_GDPS_WindSpeed_IsbL-0030_LatLon0.15_PT009H.grib2 2026-04-28 03:58 871K
20260428T00Z_MSC_GDPS_WindSpeed_IsbL-0050_LatLon0.15_PT009H.grib2 2026-04-28 03:58 1.0M
20260428T00Z_MSC_GDPS_WindSpeed_IsbL-0100_LatLon0.15_PT009H.grib2 2026-04-28 03:58 1.1M
20260428T00Z_MSC_GDPS_WindSpeed_IsbL-0150_LatLon0.15_PT009H.grib2 2026-04-28 03:58 1.0M
20260428T00Z_MSC_GDPS_WindSpeed_IsbL-0175_LatLon0.15_PT009H.grib2 2026-04-28 03:58 1.0M
20260428T00Z_MSC_GDPS_WindSpeed_IsbL-0200_LatLon0.15_PT009H.grib2 2026-04-28 03:58 1.1M
20260428T00Z_MSC_GDPS_WindSpeed_IsbL-0225_LatLon0.15_PT009H.grib2 2026-04-28 03:58 1.1M
20260428T00Z_MSC_GDPS_WindSpeed_IsbL-0250_LatLon0.15_PT009H.grib2 2026-04-28 03:58 1.1M
20260428T00Z_MSC_GDPS_WindSpeed_IsbL-0275_LatLon0.15_PT009H.grib2 2026-04-28 03:58 1.1M
20260428T00Z_MSC_GDPS_WindSpeed_IsbL-0300_LatLon0.15_PT009H.grib2 2026-04-28 03:58 1.1M
20260428T00Z_MSC_GDPS_WindSpeed_IsbL-0350_LatLon0.15_PT009H.grib2 2026-04-28 03:58 1.1M
20260428T00Z_MSC_GDPS_WindSpeed_IsbL-0400_LatLon0.15_PT009H.grib2 2026-04-28 03:58 1.1M
20260428T00Z_MSC_GDPS_WindSpeed_IsbL-0450_LatLon0.15_PT009H.grib2 2026-04-28 03:58 1.1M
20260428T00Z_MSC_GDPS_WindSpeed_IsbL-0500_LatLon0.15_PT009H.grib2 2026-04-28 03:58 1.1M
20260428T00Z_MSC_GDPS_WindSpeed_IsbL-0550_LatLon0.15_PT009H.grib2 2026-04-28 03:58 1.1M
20260428T00Z_MSC_GDPS_WindSpeed_IsbL-0600_LatLon0.15_PT009H.grib2 2026-04-28 03:58 1.1M
20260428T00Z_MSC_GDPS_WindSpeed_IsbL-0650_LatLon0.15_PT009H.grib2 2026-04-28 03:58 1.2M
20260428T00Z_MSC_GDPS_WindSpeed_IsbL-0700_LatLon0.15_PT009H.grib2 2026-04-28 03:58 1.2M
20260428T00Z_MSC_GDPS_WindSpeed_IsbL-0750_LatLon0.15_PT009H.grib2 2026-04-28 03:58 1.6M
20260428T00Z_MSC_GDPS_WindSpeed_IsbL-0800_LatLon0.15_PT009H.grib2 2026-04-28 03:58 1.7M
20260428T00Z_MSC_GDPS_WindSpeed_IsbL-0850_LatLon0.15_PT009H.grib2 2026-04-28 03:58 1.7M
20260428T00Z_MSC_GDPS_WindSpeed_IsbL-0875_LatLon0.15_PT009H.grib2 2026-04-28 03:58 1.8M
20260428T00Z_MSC_GDPS_WindSpeed_IsbL-0900_LatLon0.15_PT009H.grib2 2026-04-28 03:58 1.8M
20260428T00Z_MSC_GDPS_WindSpeed_IsbL-0925_LatLon0.15_PT009H.grib2 2026-04-28 03:58 1.8M
20260428T00Z_MSC_GDPS_WindSpeed_IsbL-0950_LatLon0.15_PT009H.grib2 2026-04-28 03:58 1.9M
20260428T00Z_MSC_GDPS_WindSpeed_IsbL-0970_LatLon0.15_PT009H.grib2 2026-04-28 03:58 1.9M
20260428T00Z_MSC_GDPS_WindSpeed_IsbL-0985_LatLon0.15_PT009H.grib2 2026-04-28 03:58 1.9M
20260428T00Z_MSC_GDPS_WindSpeed_IsbL-1000_LatLon0.15_PT009H.grib2 2026-04-28 03:58 1.8M
20260428T00Z_MSC_GDPS_WindSpeed_IsbL-1015_LatLon0.15_PT009H.grib2 2026-04-28 03:58 1.8M
20260428T00Z_MSC_GDPS_WindU_AGL-10m_LatLon0.15_PT009H.grib2 2026-04-28 03:58 1.6M
20260428T00Z_MSC_GDPS_WindU_AGL-120m_LatLon0.15_PT009H.grib2 2026-04-28 03:58 968K
20260428T00Z_MSC_GDPS_WindU_AGL-40m_LatLon0.15_PT009H.grib2 2026-04-28 03:58 966K
20260428T00Z_MSC_GDPS_WindU_AGL-80m_LatLon0.15_PT009H.grib2 2026-04-28 03:58 968K
20260428T00Z_MSC_GDPS_WindU_IsbL-0001_LatLon0.15_PT009H.grib2 2026-04-28 03:58 507K
20260428T00Z_MSC_GDPS_WindU_IsbL-0005_LatLon0.15_PT009H.grib2 2026-04-28 03:58 702K
20260428T00Z_MSC_GDPS_WindU_IsbL-0010_LatLon0.15_PT009H.grib2 2026-04-28 03:58 713K
20260428T00Z_MSC_GDPS_WindU_IsbL-0020_LatLon0.15_PT009H.grib2 2026-04-28 03:58 743K
20260428T00Z_MSC_GDPS_WindU_IsbL-0030_LatLon0.15_PT009H.grib2 2026-04-28 03:58 748K
20260428T00Z_MSC_GDPS_WindU_IsbL-0050_LatLon0.15_PT009H.grib2 2026-04-28 03:58 704K
20260428T00Z_MSC_GDPS_WindU_IsbL-0100_LatLon0.15_PT009H.grib2 2026-04-28 03:58 919K
20260428T00Z_MSC_GDPS_WindU_IsbL-0150_LatLon0.15_PT009H.grib2 2026-04-28 03:58 1.0M
20260428T00Z_MSC_GDPS_WindU_IsbL-0175_LatLon0.15_PT009H.grib2 2026-04-28 03:58 1.0M
20260428T00Z_MSC_GDPS_WindU_IsbL-0200_LatLon0.15_PT009H.grib2 2026-04-28 03:58 1.1M
20260428T00Z_MSC_GDPS_WindU_IsbL-0225_LatLon0.15_PT009H.grib2 2026-04-28 03:58 857K
20260428T00Z_MSC_GDPS_WindU_IsbL-0250_LatLon0.15_PT009H.grib2 2026-04-28 03:58 860K
20260428T00Z_MSC_GDPS_WindU_IsbL-0275_LatLon0.15_PT009H.grib2 2026-04-28 03:58 886K
20260428T00Z_MSC_GDPS_WindU_IsbL-0300_LatLon0.15_PT009H.grib2 2026-04-28 03:58 877K
20260428T00Z_MSC_GDPS_WindU_IsbL-0350_LatLon0.15_PT009H.grib2 2026-04-28 03:58 894K
20260428T00Z_MSC_GDPS_WindU_IsbL-0400_LatLon0.15_PT009H.grib2 2026-04-28 03:58 896K
20260428T00Z_MSC_GDPS_WindU_IsbL-0450_LatLon0.15_PT009H.grib2 2026-04-28 03:58 1.1M
20260428T00Z_MSC_GDPS_WindU_IsbL-0500_LatLon0.15_PT009H.grib2 2026-04-28 03:58 1.1M
20260428T00Z_MSC_GDPS_WindU_IsbL-0550_LatLon0.15_PT009H.grib2 2026-04-28 03:58 1.1M
20260428T00Z_MSC_GDPS_WindU_IsbL-0600_LatLon0.15_PT009H.grib2 2026-04-28 03:58 1.1M
20260428T00Z_MSC_GDPS_WindU_IsbL-0650_LatLon0.15_PT009H.grib2 2026-04-28 03:58 1.2M
20260428T00Z_MSC_GDPS_WindU_IsbL-0700_LatLon0.15_PT009H.grib2 2026-04-28 03:58 1.2M
20260428T00Z_MSC_GDPS_WindU_IsbL-0750_LatLon0.15_PT009H.grib2 2026-04-28 03:58 1.3M
20260428T00Z_MSC_GDPS_WindU_IsbL-0800_LatLon0.15_PT009H.grib2 2026-04-28 03:58 1.4M
20260428T00Z_MSC_GDPS_WindU_IsbL-0850_LatLon0.15_PT009H.grib2 2026-04-28 03:58 1.4M
20260428T00Z_MSC_GDPS_WindU_IsbL-0875_LatLon0.15_PT009H.grib2 2026-04-28 03:58 1.4M
20260428T00Z_MSC_GDPS_WindU_IsbL-0900_LatLon0.15_PT009H.grib2 2026-04-28 03:58 1.5M
20260428T00Z_MSC_GDPS_WindU_IsbL-0925_LatLon0.15_PT009H.grib2 2026-04-28 03:58 1.5M
20260428T00Z_MSC_GDPS_WindU_IsbL-0950_LatLon0.15_PT009H.grib2 2026-04-28 03:58 1.4M
20260428T00Z_MSC_GDPS_WindU_IsbL-0970_LatLon0.15_PT009H.grib2 2026-04-28 03:58 1.4M
20260428T00Z_MSC_GDPS_WindU_IsbL-0985_LatLon0.15_PT009H.grib2 2026-04-28 03:58 1.4M
20260428T00Z_MSC_GDPS_WindU_IsbL-1000_LatLon0.15_PT009H.grib2 2026-04-28 03:58 1.4M
20260428T00Z_MSC_GDPS_WindU_IsbL-1015_LatLon0.15_PT009H.grib2 2026-04-28 03:58 1.7M
20260428T00Z_MSC_GDPS_WindV_AGL-10m_LatLon0.15_PT009H.grib2 2026-04-28 03:58 1.6M
20260428T00Z_MSC_GDPS_WindV_AGL-120m_LatLon0.15_PT009H.grib2 2026-04-28 03:58 970K
20260428T00Z_MSC_GDPS_WindV_AGL-40m_LatLon0.15_PT009H.grib2 2026-04-28 03:58 967K
20260428T00Z_MSC_GDPS_WindV_AGL-80m_LatLon0.15_PT009H.grib2 2026-04-28 03:58 971K
20260428T00Z_MSC_GDPS_WindV_IsbL-0001_LatLon0.15_PT009H.grib2 2026-04-28 03:58 560K
20260428T00Z_MSC_GDPS_WindV_IsbL-0005_LatLon0.15_PT009H.grib2 2026-04-28 03:58 865K
20260428T00Z_MSC_GDPS_WindV_IsbL-0010_LatLon0.15_PT009H.grib2 2026-04-28 03:58 891K
20260428T00Z_MSC_GDPS_WindV_IsbL-0020_LatLon0.15_PT009H.grib2 2026-04-28 03:58 855K
20260428T00Z_MSC_GDPS_WindV_IsbL-0030_LatLon0.15_PT009H.grib2 2026-04-28 03:58 858K
20260428T00Z_MSC_GDPS_WindV_IsbL-0050_LatLon0.15_PT009H.grib2 2026-04-28 03:58 910K
20260428T00Z_MSC_GDPS_WindV_IsbL-0100_LatLon0.15_PT009H.grib2 2026-04-28 03:58 850K
20260428T00Z_MSC_GDPS_WindV_IsbL-0150_LatLon0.15_PT009H.grib2 2026-04-28 03:58 1.0M
20260428T00Z_MSC_GDPS_WindV_IsbL-0175_LatLon0.15_PT009H.grib2 2026-04-28 03:58 1.0M
20260428T00Z_MSC_GDPS_WindV_IsbL-0200_LatLon0.15_PT009H.grib2 2026-04-28 03:58 841K
20260428T00Z_MSC_GDPS_WindV_IsbL-0225_LatLon0.15_PT009H.grib2 2026-04-28 03:58 852K
20260428T00Z_MSC_GDPS_WindV_IsbL-0250_LatLon0.15_PT009H.grib2 2026-04-28 03:58 853K
20260428T00Z_MSC_GDPS_WindV_IsbL-0275_LatLon0.15_PT009H.grib2 2026-04-28 03:58 880K
20260428T00Z_MSC_GDPS_WindV_IsbL-0300_LatLon0.15_PT009H.grib2 2026-04-28 03:58 871K
20260428T00Z_MSC_GDPS_WindV_IsbL-0350_LatLon0.15_PT009H.grib2 2026-04-28 03:58 885K
20260428T00Z_MSC_GDPS_WindV_IsbL-0400_LatLon0.15_PT009H.grib2 2026-04-28 03:58 887K
20260428T00Z_MSC_GDPS_WindV_IsbL-0450_LatLon0.15_PT009H.grib2 2026-04-28 03:58 1.1M
20260428T00Z_MSC_GDPS_WindV_IsbL-0500_LatLon0.15_PT009H.grib2 2026-04-28 03:58 1.1M
20260428T00Z_MSC_GDPS_WindV_IsbL-0550_LatLon0.15_PT009H.grib2 2026-04-28 03:58 1.1M
20260428T00Z_MSC_GDPS_WindV_IsbL-0600_LatLon0.15_PT009H.grib2 2026-04-28 03:58 1.1M
20260428T00Z_MSC_GDPS_WindV_IsbL-0650_LatLon0.15_PT009H.grib2 2026-04-28 03:58 1.2M
20260428T00Z_MSC_GDPS_WindV_IsbL-0700_LatLon0.15_PT009H.grib2 2026-04-28 03:58 1.2M
20260428T00Z_MSC_GDPS_WindV_IsbL-0750_LatLon0.15_PT009H.grib2 2026-04-28 03:58 1.3M
20260428T00Z_MSC_GDPS_WindV_IsbL-0800_LatLon0.15_PT009H.grib2 2026-04-28 03:58 1.3M
20260428T00Z_MSC_GDPS_WindV_IsbL-0850_LatLon0.15_PT009H.grib2 2026-04-28 03:58 1.4M
20260428T00Z_MSC_GDPS_WindV_IsbL-0875_LatLon0.15_PT009H.grib2 2026-04-28 03:58 1.4M
20260428T00Z_MSC_GDPS_WindV_IsbL-0900_LatLon0.15_PT009H.grib2 2026-04-28 03:58 1.4M
20260428T00Z_MSC_GDPS_WindV_IsbL-0925_LatLon0.15_PT009H.grib2 2026-04-28 03:58 1.4M
20260428T00Z_MSC_GDPS_WindV_IsbL-0950_LatLon0.15_PT009H.grib2 2026-04-28 03:58 1.4M
20260428T00Z_MSC_GDPS_WindV_IsbL-0970_LatLon0.15_PT009H.grib2 2026-04-28 03:58 1.4M
20260428T00Z_MSC_GDPS_WindV_IsbL-0985_LatLon0.15_PT009H.grib2 2026-04-28 03:58 1.4M
20260428T00Z_MSC_GDPS_WindV_IsbL-1000_LatLon0.15_PT009H.grib2 2026-04-28 03:58 1.7M
20260428T00Z_MSC_GDPS_WindV_IsbL-1015_LatLon0.15_PT009H.grib2 2026-04-28 03:58 1.7M